Биледжик

Турция     40°08′19″N   29°58′37″E
темп.,
°C
ветер,
м/с
пор.,
м/с
влажн.,
%
обл.,
%
осадки,
мм/ч
давл.,
гПа
погр.,
м
11 мая, вт
вт1100:00+6с11790 0.0 102010
03:00+5ссз00830 0.0 101910
06:00+5всв00860 0.0 101910
09:00+11всв11570 0.0 1018359
12:00+18ссв33280 0.0 1016999
15:00+20ссв33250 0.0 10141281
18:00+17ссв43400 0.0 1014748
21:00+9ссв22690 0.0 101518
12 мая, ср
ср1200:00+7ссв11810 0.0 101510
03:00+6в00830 0.0 101310
06:00+6юв11822 0.0 101310
09:00+13в11532 0.0 1012346
12:00+20ссв1133100 0.0 1010832
15:00+23сз33295 0.0 10081135
18:00+21зсз33380 0.0 1008634
21:00+14сз1163100 0.0 100911
13 мая, чт
чт1300:00+12вюв1167100 0.0 100811
03:00+12ююв116790 0.0 100810
06:00+12ю11660 0.0 100810
09:00+19вюв12470 0.0 1008334
12:00+25ссв23320 0.0 10071181
15:00+28зсз472611 0.0 10062323
18:00+23з34435 0.0 1007585
21:00+17с11690 0.0 100912
14 мая, пт
пт1400:00+15юз11790 0.0 101011
03:00+14ю11650 0.0 101011
06:00+13ю11575 0.0 101010
09:00+20в11413 0.0 1011347
12:00+25с23310 0.0 10111345
15:00+26зсз67341 0.0 10101429
18:00+23зсз57420 0.0 1011888
21:00+17зюз11610 0.0 101311
15 мая, сб
сб1500:00+15з227243 0.0 101512
03:00+15юз1174100 0.0 101511
06:00+13ю11805 0.0 101611
09:00+20в11585 0.0 1015456
12:00+24св1140100 0.0 10141559
15:00+26с1233100 0.0 10111601
18:00+25с33370 0.0 10101028
21:00+18ссз1170100 0.0 101012